Meteo pe oră la Abbadia San Salvatore

Astăzi, 5 August, Joi

Timp Temperatura Precipitaţii Vânt Presiune Umiditate
00:00 +15°C° 0.1 mm 1 m/s 670 mmHg 82%
01:00 +14°C° 0 mm 1 m/s 669 mmHg 86%
02:00 +14°C° 0.3 mm 1 m/s 669 mmHg 86%
03:00 +13°C° 0.3 mm 1 m/s 669 mmHg 86%
04:00 +13°C° 0.3 mm 1 m/s 669 mmHg 86%
05:00 +14°C° 0 mm 1 m/s 669 mmHg 80%
06:00 +15°C° 0 mm 1 m/s 669 mmHg 75%
07:00 +16°C° 0 mm 1 m/s 670 mmHg 70%
08:00 +18°C° 0 mm 2 m/s 670 mmHg 60%
09:00 +21°C° 0 mm 3 m/s 671 mmHg 50%
10:00 +23°C° 0 mm 4 m/s 671 mmHg 40%
11:00 +23°C° 0 mm 5 m/s 671 mmHg 36%
12:00 +25°C° 0 mm 5 m/s 671 mmHg 33%
13:00 +26°C° 0 mm 6 m/s 672 mmHg 29%
14:00 +24°C° 0 mm 6 m/s 671 mmHg 30%
15:00 +24°C° 0 mm 6 m/s 671 mmHg 30%
16:00 +23°C° 0 mm 6 m/s 671 mmHg 31%
17:00 +22°C° 0 mm 5 m/s 671 mmHg 37%
18:00 +20°C° 0 mm 4 m/s 670 mmHg 42%
19:00 +18°C° 0 mm 3 m/s 670 mmHg 48%
20:00 +16°C° 0 mm 2 m/s 670 mmHg 56%
21:00 +15°C° 0 mm 2 m/s 670 mmHg 64%
22:00 +13°C° 0 mm 1 m/s 669 mmHg 72%
23:00 +13°C° 0 mm 1 m/s 669 mmHg 74%

Mâine, 6 August, Vineri

Timp Temperatura Precipitaţii Vânt Presiune Umiditate
00:00 +12°C° 0 mm 1 m/s 669 mmHg 76%
01:00 +12°C° 0 mm 1 m/s 669 mmHg 79%
02:00 +12°C° 0 mm 1 m/s 669 mmHg 79%
03:00 +12°C° 0 mm 1 m/s 669 mmHg 80%
04:00 +12°C° 0 mm 1 m/s 669 mmHg 80%
05:00 +13°C° 0 mm 1 m/s 669 mmHg 76%
06:00 +14°C° 0 mm 1 m/s 670 mmHg 72%
07:00 +16°C° 0 mm 1 m/s 670 mmHg 68%
08:00 +19°C° 0 mm 1 m/s 671 mmHg 57%
09:00 +21°C° 0 mm 2 m/s 671 mmHg 46%
10:00 +24°C° 0 mm 2 m/s 672 mmHg 36%
11:00 +25°C° 0 mm 3 m/s 672 mmHg 33%
12:00 +27°C° 0 mm 3 m/s 672 mmHg 30%
13:00 +28°C° 0 mm 4 m/s 672 mmHg 27%
14:00 +28°C° 0 mm 5 m/s 672 mmHg 28%
15:00 +28°C° 0 mm 6 m/s 672 mmHg 28%
16:00 +27°C° 0 mm 6 m/s 672 mmHg 29%
17:00 +25°C° 0 mm 5 m/s 671 mmHg 36%
18:00 +22°C° 0 mm 4 m/s 671 mmHg 44%
19:00 +20°C° 0 mm 3 m/s 671 mmHg 51%
20:00 +18°C° 0 mm 2 m/s 671 mmHg 58%
21:00 +17°C° 0 mm 2 m/s 671 mmHg 65%
22:00 +15°C° 0 mm 1 m/s 671 mmHg 72%
23:00 +15°C° 0 mm 1 m/s 671 mmHg 71%

Poimâine, 7 August, Sâmbătă

Timp Temperatura Precipitaţii Vânt Presiune Umiditate
00:00 +15°C° 0 mm 1 m/s 670 mmHg 71%
01:00 +14°C° 0 mm 1 m/s 670 mmHg 70%
02:00 +14°C° 0 mm 1 m/s 670 mmHg 71%
03:00 +14°C° 0 mm 1 m/s 670 mmHg 71%
04:00 +14°C° 0 mm 1 m/s 670 mmHg 72%
05:00 +15°C° 0 mm 1 m/s 671 mmHg 66%
06:00 +18°C° 0 mm 1 m/s 671 mmHg 60%
07:00 +19°C° 0 mm 1 m/s 672 mmHg 55%
08:00 +20°C° 0 mm 2 m/s 672 mmHg 48%
09:00 +24°C° 0 mm 2 m/s 673 mmHg 41%
10:00 +26°C° 0 mm 3 m/s 673 mmHg 35%
11:00 +27°C° 0 mm 4 m/s 673 mmHg 33%
12:00 +28°C° 0 mm 4 m/s 673 mmHg 31%
13:00 +29°C° 0 mm 5 m/s 673 mmHg 29%
14:00 +29°C° 0 mm 5 m/s 673 mmHg 30%
15:00 +29°C° 0 mm 5 m/s 673 mmHg 30%
16:00 +28°C° 0 mm 5 m/s 673 mmHg 31%
17:00 +26°C° 0 mm 4 m/s 672 mmHg 36%
18:00 +24°C° 0 mm 3 m/s 672 mmHg 41%
19:00 +23°C° 0 mm 2 m/s 671 mmHg 46%
20:00 +20°C° 0 mm 2 m/s 671 mmHg 52%
21:00 +18°C° 0 mm 2 m/s 671 mmHg 58%
22:00 +16°C° 0 mm 1 m/s 671 mmHg 65%
23:00 +16°C° 0 mm 1 m/s 671 mmHg 65%

8 August, Duminică

Timp Temperatura Precipitaţii Vânt Presiune Umiditate
00:00 +16°C° 0 mm 1 m/s 671 mmHg 65%
01:00 +16°C° 0 mm 2 m/s 671 mmHg 66%
02:00 +15°C° 0 mm 2 m/s 670 mmHg 68%
03:00 +15°C° 0 mm 2 m/s 670 mmHg 70%
04:00 +15°C° 0 mm 2 m/s 670 mmHg 72%
05:00 +16°C° 0 mm 2 m/s 671 mmHg 69%
06:00 +18°C° 0 mm 2 m/s 671 mmHg 65%
07:00 +19°C° 0 mm 2 m/s 672 mmHg 62%
08:00 +22°C° 0 mm 3 m/s 673 mmHg 54%
09:00 +25°C° 0 mm 4 m/s 673 mmHg 46%
10:00 +28°C° 0 mm 5 m/s 674 mmHg 38%
11:00 +28°C° 0 mm 5 m/s 674 mmHg 38%
12:00 +29°C° 0 mm 6 m/s 674 mmHg 39%
13:00 +29°C° 0 mm 6 m/s 674 mmHg 40%
14:00 +28°C° 0 mm 6 m/s 674 mmHg 43%
15:00 +28°C° 0 mm 6 m/s 674 mmHg 47%
16:00 +27°C° 0 mm 6 m/s 674 mmHg 50%
17:00 +25°C° 0 mm 5 m/s 674 mmHg 57%
18:00 +23°C° 0 mm 4 m/s 674 mmHg 64%
19:00 +21°C° 0 mm 3 m/s 674 mmHg 71%
20:00 +20°C° 0 mm 2 m/s 674 mmHg 79%
21:00 +19°C° 0 mm 2 m/s 674 mmHg 87%
22:00 +18°C° 0 mm 1 m/s 674 mmHg 95%
23:00 +18°C° 0 mm 1 m/s 674 mmHg 94%

9 August, Luni

Timp Temperatura Precipitaţii Vânt Presiune Umiditate
00:00 +18°C° 0 mm 1 m/s 674 mmHg 93%
01:00 +15°C° 0 mm 0 m/s 674 mmHg 93%
02:00 +16°C° 0 mm 1 m/s 674 mmHg 92%
03:00 +16°C° 0 mm 1 m/s 674 mmHg 92%
04:00 +15°C° 0 mm 1 m/s 674 mmHg 91%
05:00 +18°C° 0 mm 1 m/s 674 mmHg 87%
06:00 +19°C° 0 mm 1 m/s 675 mmHg 82%
07:00 +20°C° 0 mm 1 m/s 675 mmHg 78%
08:00 +23°C° 0 mm 1 m/s 676 mmHg 65%
09:00 +25°C° 0 mm 1 m/s 676 mmHg 52%
10:00 +28°C° 0 mm 1 m/s 677 mmHg 40%
11:00 +29°C° 0 mm 2 m/s 677 mmHg 36%
12:00 +30°C° 0 mm 3 m/s 677 mmHg 33%
13:00 +32°C° 0 mm 4 m/s 678 mmHg 30%
14:00 +32°C° 0 mm 5 m/s 677 mmHg 29%
15:00 +32°C° 0 mm 5 m/s 677 mmHg 28%
16:00 +32°C° 0 mm 5 m/s 677 mmHg 27%
17:00 +28°C° 0 mm 4 m/s 677 mmHg 31%
18:00 +26°C° 0 mm 3 m/s 676 mmHg 35%
19:00 +22°C° 0 mm 3 m/s 676 mmHg 40%
20:00 +20°C° 0 mm 2 m/s 676 mmHg 43%
21:00 +19°C° 0 mm 1 m/s 676 mmHg 46%
22:00 +16°C° 0 mm 1 m/s 676 mmHg 50%
23:00 +16°C° 0 mm 1 m/s 676 mmHg 47%

10 August, Marţi

Timp Temperatura Precipitaţii Vânt Presiune Umiditate
00:00 +16°C° 0 mm 1 m/s 676 mmHg 45%
01:00 +15°C° 0 mm 1 m/s 676 mmHg 42%
02:00 +15°C° 0 mm 1 m/s 675 mmHg 43%
03:00 +15°C° 0 mm 1 m/s 675 mmHg 44%
04:00 +15°C° 0 mm 1 m/s 675 mmHg 45%
05:00 +16°C° 0 mm 1 m/s 675 mmHg 44%
06:00 +18°C° 0 mm 1 m/s 676 mmHg 42%
07:00 +19°C° 0 mm 1 m/s 676 mmHg 40%
08:00 +22°C° 0 mm 1 m/s 677 mmHg 34%
09:00 +25°C° 0 mm 2 m/s 678 mmHg 28%
10:00 +27°C° 0 mm 2 m/s 678 mmHg 22%
11:00 +29°C° 0 mm 2 m/s 678 mmHg 19%
12:00 +30°C° 0 mm 2 m/s 678 mmHg 17%
13:00 +32°C° 0 mm 2 m/s 678 mmHg 15%
14:00 +33°C° 0 mm 3 m/s 678 mmHg 15%
15:00 +32°C° 0 mm 4 m/s 677 mmHg 15%
16:00 +32°C° 0 mm 5 m/s 677 mmHg 15%
17:00 +29°C° 0 mm 4 m/s 677 mmHg 20%
18:00 +26°C° 0 mm 3 m/s 676 mmHg 26%
19:00 +23°C° 0 mm 2 m/s 675 mmHg 32%
20:00 +21°C° 0 mm 2 m/s 675 mmHg 37%
21:00 +19°C° 0 mm 2 m/s 675 mmHg 42%
22:00 +17°C° 0 mm 2 m/s 675 mmHg 48%
23:00 +17°C° 0 mm 2 m/s 675 mmHg 50%
Arată mai mult

Formular de consimțământ

Meteoprog și furnizorii noștri de servicii pot stoca și accesa date personale, precum cookies, identificatori de dispozitiv sau alte tehnologii similare pe dispozitivul dumneavoastră și procesa astfel de date pentru a personaliza conținutul și reclamele, dar și pentru a oferi caracteristici de social media și pentru a analiza traficul.

  • Stocarea și/sau accesarea informațiilor pe dispozitivul dumneavoastră

    Cookies, identificatori de dispozitiv sau alte informații pot fi stocate sau accesate pe dispozitiv în scopurile indicate mai sus.

  • Reclame și conținut personalizat, evaluarea reclamelor și a conținutului, informații despre audiențe și dezvoltarea produselor

    Reclamele și conținutul pot fi personalizate pe baza unui profil. Pot fi adăugate date suplimentare pentru a personaliza mai bine reclamele și conținutul. Performanța reclamelor și conținutului poate fi măsurată. Pot fi obținute informații despre utilizatorii care au văzut reclamele și conținutul. Aceste date pot fi utilizate pentru a dezvolta sau îmbunătăți experiența utilizatorilor, sistemele și software-ul.

Dând clic pe ‘Sunt de acord’, permiteți utilizarea cookie-urilor menționate, a identificatorilor de dispozitiv, balizelor web sau altor tehnologii similare. Setările pot fi modificate din browser-ul dispozitivului dumneavoastră.

În anumite scopuri, interesele legitime pot prima asupra consimțământului. Puteți citi mai multe informații în acest sens în Politica privind Confidențialitatea Datelor și Cookie.